Погода в Денисово

Россия / Тюменская область     56°39′23″N   65°39′05″E
темп.,
°C
ветер,
м/с
пор.,
м/с
влажн.,
%
обл.,
%
осадки,
мм/ч
давл.,
гПа
погр.,
м
17 апреля, сб
сб1723:00+2св38600 0.0 1028206
02:000всв24675 0.0 102872
05:00−1ююв22675 0.0 102818
08:00+3ююз34540 0.0 1027303
11:00+8зюз45403 0.0 10251370
14:00+10зюз57335 0.0 10232019
17:00+11з583374 0.0 10202334
20:00+8сз365484 0.0 1019136
18 апреля, вс
вс1823:00+5зюз36575 0.0 1018105
02:00+3з37696 0.0 1015119
05:00+3з5127244 0.0 1014329
08:00+6зсз6126798 0.0 1013918
11:00+5ссз9125699 0.2 10151875
14:00+2с9114298 0.0 10211868
17:00+2ссв810295 0.0 10251974
20:00−2ссв610400 0.0 10281248
19 апреля, пн
пн1923:00−4ссв510450 0.0 10311256
02:00−5ссв48472 0.0 10321216
05:00−6ссв36480 0.0 1034795
08:00−4с46395 0.0 10351341
11:00−1с4633100 0.0 10351932
14:00+1с5627100 0.0 10342289
17:00+1с4628100 0.0 10342297
20:00−2ссв22425 0.0 103417
20 апреля, вт
вт2023:00−3всв11480 0.0 103511
02:00−4ююв11485 0.0 103510
05:00−4з23515 0.0 103557
08:000з363342 0.0 1034430
11:00+4з573070 0.0 10311368
14:00+8зсз68285 0.0 10291751
17:00+9сз69337 0.0 10271674
20:00+5зсз38525 0.0 1027140
21 апреля, ср
ср2123:00+3сз411605 0.0 1027231
02:00+2сз3972100 0.0 1027188
05:00+1ссз378039 0.0 1029194
08:00+4с49717 0.0 1031599
11:00+8с575480 0.0 10311413
14:00+9с564784 0.0 10321638
17:00+9с554568 0.0 10331612
20:00+6с236034 0.0 103556